Weather History for Cagliari, Italy

Change the Weather History Date:

Wednesday, October 24, 2012

  Actual Average Record
Temperature  
Mean Temperature 64 °F -  
Max Temperature 74 °F 67 °F 82 °F (2006)
Min Temperature 55 °F 51 °F 44 °F (2007)
Growing Degree Days 14 (Base 50)    
Moisture  
Dew Point 56 °F    
Average Humidity 75    
Maximum Humidity 88    
Minimum Humidity 53    
Precipitation  
Precipitation 0.01 in 0.07 in - ()
Sea Level Pressure  
Sea Level Pressure 29.93 in    
Wind  
Wind Speed 5 mph ()    
Max Wind Speed 15 mph    
Max Gust Speed -    
Visibility 6.4 miles    
Events Rain , Thunderstorm    
Averages and records for this station are not official NWS values.
T = Trace of Precipitation, MM = Missing Value Source: Averaged Metar Reports

Daily Weather History Graph

Daily Weather History Graph

Search for Another Location

Airport:

Trip Planner

Search our weather history database for the weather conditions in past years. The results will help you decide how hot, cold, wet, or windy it might be!

Date:

Astronomy

Oct. 24, 2012 Rise Set
Actual Time 7:43 AM CEST 6:32 PM CEST
Civil Twilight 7:15 AM CEST 6:59 PM CEST
Nautical Twilight 6:44 AM CEST 7:30 PM CEST
Astronomical Twilight 6:13 AM CEST 8:01 PM CEST
Moon 3:37 PM CEST (10/24) 2:23 AM CEST (10/24)
Length of Visible Light 11h 43m
Length of Day
10h 49m
Waxing Gibbous, 73% of the Moon is Illuminated
Oct 24
Waxing Gibbous
Oct 29
Full
Nov 7
Last Quarter
Nov 13
New
Nov 20
First Quarter

Hourly Weather History & Observations

Time (CEST) Temp. Dew Point Humidity Pressure Visibility Wind Dir Wind Speed Gust Speed Precip Events Conditions
12:15 AM 64.4 °F 55.4 °F 73% 30.01 in 6.2 mi NW 5.8 mph - N/A   Partly Cloudy
12:45 AM 64.4 °F 55.4 °F 73% 30.01 in 6.2 mi WNW 4.6 mph - N/A   Partly Cloudy
12:55 AM 64.4 °F 55.4 °F 73% 30.01 in 6.2 mi WNW 4.6 mph - N/A   Partly Cloudy
1:15 AM 64.4 °F 55.4 °F 73% 30.01 in 6.2 mi WNW 4.6 mph - N/A   Partly Cloudy
1:45 AM 64.4 °F 55.4 °F 73% 30.01 in 6.2 mi NW 5.8 mph - N/A   Partly Cloudy
1:55 AM 64.4 °F 55.4 °F 73% 30.01 in 6.2 mi NW 5.8 mph - N/A   Partly Cloudy
2:00 AM 64 °F 56 °F 68% 30.01 in 6 mi NW 5.8 mph - -   Scattered Clouds
2:15 AM 64.4 °F 55.4 °F 73% 30.01 in 6.2 mi NW 5.8 mph - N/A   Partly Cloudy
2:45 AM 62.6 °F 53.6 °F 72% 29.98 in 6.2 mi NNE 2.3 mph - N/A   Partly Cloudy
2:55 AM 62.6 °F 53.6 °F 72% 29.98 in 6.2 mi NNE 2.3 mph - N/A   Partly Cloudy
3:15 AM 60.8 °F 53.6 °F 77% 29.98 in 6.2 mi NNE 2.3 mph - N/A   Partly Cloudy
3:45 AM 60.8 °F 51.8 °F 72% 29.98 in 6.2 mi NNE 2.3 mph - N/A   Scattered Clouds
3:55 AM 60.8 °F 51.8 °F 72% 29.98 in 6.2 mi NNE 2.3 mph - N/A   Scattered Clouds
4:15 AM 59.0 °F 51.8 °F 77% 29.98 in 6.2 mi NNE 2.3 mph - N/A   Scattered Clouds
4:45 AM 59.0 °F 51.8 °F 77% 29.95 in 6.2 mi NNW 5.8 mph - N/A   Scattered Clouds
4:55 AM 59.0 °F 51.8 °F 77% 29.95 in 6.2 mi NNW 5.8 mph - N/A   Scattered Clouds
5:00 AM 59 °F 52 °F 69% 29.96 in 6 mi NNW 5.8 mph - -   Scattered Clouds
5:15 AM 59.0 °F 51.8 °F 77% 29.95 in 6.2 mi NW 6.9 mph - N/A   Scattered Clouds
5:45 AM 59.0 °F 51.8 °F 77% 29.95 in 6.2 mi WNW 3.5 mph - N/A   Scattered Clouds
5:55 AM 59.0 °F 51.8 °F 77% 29.95 in 6.2 mi WNW 3.5 mph - N/A   Scattered Clouds
6:15 AM 59.0 °F 51.8 °F 77% 29.95 in 6.2 mi NW 3.5 mph - N/A   Scattered Clouds
6:45 AM 59.0 °F 51.8 °F 77% 29.95 in 6.2 mi WNW 3.5 mph - N/A   Partly Cloudy
7:15 AM 59.0 °F 50.0 °F 72% 29.95 in 6.2 mi NW 5.8 mph - N/A   Partly Cloudy
7:45 AM 55.4 °F 48.2 °F 77% 29.92 in 6.2 mi NW 2.3 mph - N/A   Scattered Clouds
7:55 AM 55.4 °F 48.2 °F 77% 29.92 in 6.2 mi NW 2.3 mph - N/A   Scattered Clouds
8:00 AM 55 °F 48 °F 70% 29.95 in 6 mi NW 2.3 mph - -   Partly Cloudy
8:15 AM 55.4 °F 48.2 °F 77% 29.92 in 6.2 mi NNW 2.3 mph - N/A   Scattered Clouds
8:45 AM 57.2 °F 50.0 °F 77% 29.92 in 6.2 mi NW 2.3 mph - N/A   Scattered Clouds
8:55 AM 57.2 °F 50.0 °F 77% 29.92 in 6.2 mi NW 2.3 mph - N/A   Scattered Clouds
9:15 AM 59.0 °F 53.6 °F 82% 29.92 in 6.2 mi NW 1.2 mph - N/A   Partly Cloudy
9:45 AM 60.8 °F 55.4 °F 82% 29.95 in 6.2 mi WNW 4.6 mph - N/A   Partly Cloudy
9:55 AM 60.8 °F 55.4 °F 82% 29.95 in 6.2 mi WNW 4.6 mph - N/A   Partly Cloudy
10:15 AM 64.4 °F 59.0 °F 83% 29.92 in 6.2 mi NW 4.6 mph - N/A   Scattered Clouds
10:45 AM 66.2 °F 55.4 °F 68% 29.92 in 6.2 mi West 4.6 mph - N/A   Scattered Clouds
10:55 AM 66.2 °F 55.4 °F 68% 29.92 in 6.2 mi West 4.6 mph - N/A   Scattered Clouds
11:00 AM 66 °F 56 °F 62% 29.94 in 12 mi West 4.6 mph - -   Partly Cloudy
11:15 AM 68.0 °F 57.2 °F 68% 29.92 in 6.2 mi West 2.3 mph - N/A   Partly Cloudy
11:45 AM 71.6 °F 59.0 °F 64% 29.92 in 6.2 mi East 3.5 mph - N/A   Partly Cloudy
11:55 AM 71.6 °F 59.0 °F 64% 29.92 in 6.2 mi East 3.5 mph - N/A   Partly Cloudy
12:15 PM 71.6 °F 57.2 °F 60% 29.92 in 6.2 mi SE 3.5 mph - N/A   Scattered Clouds
12:45 PM 73.4 °F 55.4 °F 53% 29.92 in 6.2 mi ESE 9.2 mph - N/A   Scattered Clouds
1:15 PM 73.4 °F 59.0 °F 61% 29.92 in 6.2 mi SE 10.4 mph - N/A   Scattered Clouds
1:45 PM 69.8 °F 57.2 °F 64% 29.92 in 6.2 mi SE 15.0 mph - N/A Rain , Thunderstorm Light Thunderstorms and Rain
1:55 PM 69.8 °F 57.2 °F 64% 29.92 in 6.2 mi SE 15.0 mph - N/A Rain , Thunderstorm Light Thunderstorms and Rain
2:00 PM 70 °F 58 °F 57% 29.92 in 9 mi SE 15.0 mph - - Rain , Thunderstorm Thunderstorms and Rain
2:15 PM 68.0 °F 59.0 °F 73% 29.89 in 6.2 mi SE 13.8 mph - N/A Rain , Thunderstorm Light Thunderstorms and Rain
2:45 PM 68.0 °F 60.8 °F 78% 29.89 in 6.2 mi SSE 8.1 mph - N/A Rain , Thunderstorm Light Thunderstorms and Rain
2:55 PM 68.0 °F 60.8 °F 78% 29.89 in 6.2 mi SSE 8.1 mph - N/A Rain , Thunderstorm Light Thunderstorms and Rain
3:15 PM 68.0 °F 57.2 °F 68% 29.89 in 6.2 mi South 5.8 mph - N/A   Mostly Cloudy
3:45 PM - - N/A% 29.89 in 6.2 mi SSE 5.8 mph - N/A Thunderstorm Thunderstorm
3:55 PM 69.8 °F 59.0 °F 68% 29.89 in 6.2 mi SSE 5.8 mph - N/A Thunderstorm Thunderstorm
4:15 PM 69.8 °F 57.2 °F 64% 29.89 in 6.2 mi SSE 4.6 mph - N/A   Partly Cloudy
4:45 PM 68.0 °F 55.4 °F 64% 29.89 in 6.2 mi West 11.5 mph - N/A   Scattered Clouds
4:55 PM 68.0 °F 55.4 °F 64% 29.89 in 6.2 mi West 11.5 mph - N/A   Scattered Clouds
5:00 PM 68 °F 56 °F 57% 29.89 in 12 mi West 11.5 mph - - Thunderstorm Light Thunderstorm
5:15 PM - - N/A% 29.89 in 6.2 mi West 5.8 mph - N/A Rain Light Rain
5:45 PM - - N/A% 29.89 in 6.2 mi NNW 6.9 mph - N/A Rain Light Rain
5:55 PM 66.2 °F 59.0 °F 78% 29.89 in 6.2 mi NNW 6.9 mph - N/A Rain Light Rain
6:15 PM 66.2 °F 60.8 °F 83% 29.89 in 6.2 mi North 6.9 mph - N/A   Scattered Clouds
6:45 PM 64.4 °F 59.0 °F 83% 29.89 in 6.2 mi NNW 5.8 mph - N/A   Mostly Cloudy
6:55 PM 64.4 °F 59.0 °F 83% 29.89 in 6.2 mi NNW 5.8 mph - N/A   Mostly Cloudy
7:15 PM 64.4 °F 59.0 °F 83% 29.89 in 6.2 mi NNW 5.8 mph - N/A   Mostly Cloudy
7:45 PM - - N/A% 29.89 in 6.2 mi NW 3.5 mph - N/A Rain Light Rain
7:55 PM 64.4 °F 59.0 °F 83% 29.89 in 6.2 mi NW 3.5 mph - N/A Rain Light Rain
8:00 PM 65 °F 59 °F 74% 29.91 in 12 mi NW 3.5 mph - - Rain Light Rain
8:15 PM 64.4 °F 57.2 °F 77% 29.89 in 6.2 mi NW 6.9 mph - N/A   Partly Cloudy
8:45 PM 62.6 °F 57.2 °F 82% 29.89 in 6.2 mi WNW 3.5 mph - N/A   Partly Cloudy
8:55 PM 62.6 °F 57.2 °F 82% 29.89 in 6.2 mi WNW 3.5 mph - N/A   Partly Cloudy
9:15 PM 62.6 °F 57.2 °F 82% 29.89 in 6.2 mi WNW 6.9 mph - N/A   Scattered Clouds
9:45 PM 62.6 °F 59.0 °F 88% 29.92 in 6.2 mi NW 5.8 mph - N/A   Partly Cloudy
9:55 PM 62.6 °F 59.0 °F 88% 29.92 in 6.2 mi NW 5.8 mph - N/A   Partly Cloudy
10:15 PM 60.8 °F 57.2 °F 88% 29.92 in 6.2 mi WNW 6.9 mph - N/A   Partly Cloudy
10:45 PM 60.8 °F 57.2 °F 88% 29.92 in 6.2 mi NW 5.8 mph - N/A   Partly Cloudy
10:55 PM 60.8 °F 57.2 °F 88% 29.92 in 6.2 mi NW 5.8 mph - N/A   Partly Cloudy
11:00 PM 61 °F 58 °F 86% 29.93 in 6 mi NW 5.8 mph - -   Scattered Clouds
11:15 PM 60.8 °F 57.2 °F 88% 29.92 in 6.2 mi WNW 5.8 mph - N/A   Partly Cloudy
11:45 PM 60.8 °F 57.2 °F 88% 29.92 in 6.2 mi WNW 6.9 mph - N/A   Partly Cloudy
11:55 PM 60.8 °F 57.2 °F 88% 29.92 in 6.2 mi WNW 6.9 mph - N/A   Partly Cloudy